• In Moldova, Republic
  • List of Countries
  • For 7 days
  • Water Temperature
  • Satellite Maps
  • Weather Map
  • Weather Widgets
  • user-avatar
    Login

    Hourly Weather Saurimo

    Today, 21 May, Monday

    Time Temperature Precipitation Wind Pressure Humidity
    00:00 +22°C° 0 mm 1 mps 670 mmHg 61%
    01:00 +22°C° 0 mm 1 mps 670 mmHg 63%
    02:00 +21°C° 0 mm 1 mps 670 mmHg 65%
    03:00 +20°C° 0 mm 1 mps 670 mmHg 66%
    04:00 +20°C° 0 mm 1 mps 670 mmHg 67%
    05:00 +19°C° 0 mm 2 mps 670 mmHg 64%
    06:00 +20°C° 0 mm 2 mps 671 mmHg 61%
    07:00 +20°C° 0 mm 2 mps 671 mmHg 58%
    08:00 +24°C° 0 mm 3 mps 672 mmHg 50%
    09:00 +27°C° 0 mm 3 mps 672 mmHg 42%
    10:00 +30°C° 0 mm 3 mps 673 mmHg 34%
    11:00 +31°C° 0 mm 3 mps 672 mmHg 32%
    12:00 +33°C° 0 mm 3 mps 672 mmHg 30%
    13:00 +33°C° 0 mm 3 mps 671 mmHg 28%
    14:00 +33°C° 0 mm 3 mps 671 mmHg 29%
    15:00 +33°C° 0 mm 3 mps 670 mmHg 30%
    16:00 +31°C° 0 mm 3 mps 670 mmHg 31%
    17:00 +29°C° 0 mm 2 mps 670 mmHg 36%
    18:00 +26°C° 0 mm 2 mps 670 mmHg 41%
    19:00 +24°C° 0 mm 1 mps 670 mmHg 46%
    20:00 +23°C° 0 mm 2 mps 670 mmHg 46%
    21:00 +21°C° 0 mm 2 mps 670 mmHg 47%
    22:00 +21°C° 0 mm 2 mps 671 mmHg 47%
    23:00 +20°C° 0 mm 2 mps 670 mmHg 47%

    Tomorrow, 22 May, Tuesday

    Time Temperature Precipitation Wind Pressure Humidity
    00:00 +20°C° 0 mm 2 mps 670 mmHg 47%
    01:00 +19°C° 0 mm 2 mps 670 mmHg 47%
    02:00 +19°C° 0 mm 2 mps 670 mmHg 47%
    03:00 +18°C° 0 mm 2 mps 670 mmHg 48%
    04:00 +17°C° 0 mm 2 mps 670 mmHg 48%
    05:00 +18°C° 0 mm 2 mps 670 mmHg 48%
    06:00 +19°C° 0 mm 2 mps 671 mmHg 48%
    07:00 +19°C° 0 mm 2 mps 671 mmHg 48%
    08:00 +22°C° 0 mm 3 mps 672 mmHg 42%
    09:00 +26°C° 0 mm 3 mps 673 mmHg 36%
    10:00 +29°C° 0 mm 4 mps 674 mmHg 30%
    11:00 +30°C° 0 mm 4 mps 673 mmHg 28%
    12:00 +31°C° 0 mm 3 mps 673 mmHg 26%
    13:00 +33°C° 0 mm 3 mps 672 mmHg 25%
    14:00 +31°C° 0 mm 3 mps 672 mmHg 26%
    15:00 +31°C° 0 mm 2 mps 671 mmHg 27%
    16:00 +31°C° 0 mm 2 mps 671 mmHg 28%
    17:00 +28°C° 0 mm 2 mps 671 mmHg 34%
    18:00 +26°C° 0 mm 2 mps 671 mmHg 39%
    19:00 +23°C° 0 mm 1 mps 671 mmHg 44%
    20:00 +23°C° 0 mm 1 mps 671 mmHg 45%
    21:00 +22°C° 0 mm 1 mps 672 mmHg 47%
    22:00 +21°C° 0 mm 1 mps 672 mmHg 49%
    23:00 +20°C° 0 mm 2 mps 672 mmHg 50%

    Day after tomorrow, 23 May, Wednesday

    Time Temperature Precipitation Wind Pressure Humidity
    00:00 +19°C° 0 mm 2 mps 672 mmHg 50%
    01:00 +19°C° 0 mm 2 mps 671 mmHg 51%
    02:00 +19°C° 0 mm 2 mps 671 mmHg 51%
    03:00 +18°C° 0 mm 2 mps 671 mmHg 50%
    04:00 +18°C° 0 mm 2 mps 671 mmHg 50%
    05:00 +19°C° 0 mm 2 mps 671 mmHg 49%
    06:00 +19°C° 0 mm 3 mps 672 mmHg 49%
    07:00 +20°C° 0 mm 3 mps 673 mmHg 49%
    08:00 +22°C° 0 mm 3 mps 673 mmHg 44%
    09:00 +26°C° 0 mm 3 mps 674 mmHg 39%
    10:00 +29°C° 0 mm 4 mps 675 mmHg 33%
    11:00 +30°C° 0 mm 3 mps 674 mmHg 31%
    12:00 +31°C° 0 mm 3 mps 673 mmHg 29%
    13:00 +32°C° 0 mm 2 mps 673 mmHg 27%
    14:00 +32°C° 0 mm 2 mps 672 mmHg 28%
    15:00 +31°C° 0 mm 2 mps 672 mmHg 29%
    16:00 +31°C° 0 mm 2 mps 671 mmHg 30%
    17:00 +29°C° 0 mm 1 mps 672 mmHg 35%
    18:00 +26°C° 0 mm 1 mps 672 mmHg 40%
    19:00 +24°C° 0 mm 1 mps 672 mmHg 45%
    20:00 +23°C° 0 mm 1 mps 672 mmHg 46%
    21:00 +23°C° 0 mm 1 mps 672 mmHg 47%
    22:00 +22°C° 0 mm 1 mps 672 mmHg 49%
    23:00 +22°C° 0 mm 1 mps 672 mmHg 48%

    24 May, Thursday

    Time Temperature Precipitation Wind Pressure Humidity
    00:00 +22°C° 0 mm 1 mps 672 mmHg 48%
    01:00 +22°C° 0 mm 1 mps 672 mmHg 48%
    02:00 +21°C° 0 mm 2 mps 671 mmHg 48%
    03:00 +21°C° 0 mm 2 mps 671 mmHg 48%
    04:00 +20°C° 0 mm 2 mps 671 mmHg 48%
    05:00 +20°C° 0 mm 2 mps 671 mmHg 48%
    06:00 +21°C° 0 mm 2 mps 672 mmHg 49%
    07:00 +21°C° 0 mm 3 mps 673 mmHg 49%
    08:00 +24°C° 0 mm 3 mps 673 mmHg 44%
    09:00 +27°C° 0 mm 3 mps 674 mmHg 39%
    10:00 +30°C° 0 mm 4 mps 674 mmHg 34%
    11:00 +31°C° 0 mm 3 mps 673 mmHg 32%
    12:00 +33°C° 0 mm 3 mps 673 mmHg 30%
    13:00 +34°C° 0 mm 2 mps 672 mmHg 28%
    14:00 +32°C° 0 mm 2 mps 672 mmHg 31%
    15:00 +31°C° 0 mm 2 mps 671 mmHg 34%
    16:00 +30°C° 0 mm 2 mps 671 mmHg 36%
    17:00 +28°C° 0 mm 2 mps 671 mmHg 40%
    18:00 +27°C° 0 mm 2 mps 671 mmHg 44%
    19:00 +25°C° 0 mm 2 mps 671 mmHg 48%
    20:00 +24°C° 0 mm 1 mps 671 mmHg 50%
    21:00 +23°C° 0 mm 1 mps 671 mmHg 52%
    22:00 +23°C° 0 mm 1 mps 671 mmHg 54%
    23:00 +23°C° 0 mm 2 mps 671 mmHg 53%

    25 May, Friday

    Time Temperature Precipitation Wind Pressure Humidity
    00:00 +23°C° 0 mm 2 mps 671 mmHg 52%
    01:00 +23°C° 0 mm 2 mps 671 mmHg 52%
    02:00 +23°C° 0 mm 2 mps 671 mmHg 51%
    03:00 +23°C° 0 mm 2 mps 671 mmHg 50%
    04:00 +23°C° 0 mm 2 mps 671 mmHg 50%
    05:00 +23°C° 0 mm 2 mps 671 mmHg 50%
    06:00 +23°C° 0 mm 2 mps 671 mmHg 51%
    07:00 +22°C° 0 mm 3 mps 672 mmHg 52%
    08:00 +26°C° 0 mm 3 mps 672 mmHg 47%
    09:00 +28°C° 0 mm 4 mps 673 mmHg 43%
    10:00 +30°C° 0 mm 4 mps 673 mmHg 38%
    11:00 +30°C° 0 mm 3 mps 672 mmHg 36%
    12:00 +31°C° 0 mm 3 mps 672 mmHg 34%
    13:00 +31°C° 0 mm 2 mps 671 mmHg 32%
    14:00 +30°C° 0 mm 2 mps 670 mmHg 35%
    15:00 +30°C° 0 mm 2 mps 670 mmHg 37%
    16:00 +29°C° 0 mm 1 mps 670 mmHg 39%
    17:00 +27°C° 0 mm 1 mps 670 mmHg 44%
    18:00 +26°C° 0 mm 2 mps 670 mmHg 48%
    19:00 +24°C° 0 mm 2 mps 670 mmHg 52%
    20:00 +23°C° 0 mm 2 mps 670 mmHg 54%
    21:00 +23°C° 0 mm 2 mps 671 mmHg 56%
    22:00 +21°C° 0 mm 2 mps 671 mmHg 58%
    23:00 +20°C° 0 mm 2 mps 670 mmHg 60%

    26 May, Saturday

    Time Temperature Precipitation Wind Pressure Humidity
    00:00 +20°C° 0 mm 2 mps 670 mmHg 62%
    01:00 +19°C° 0 mm 2 mps 670 mmHg 64%
    02:00 +19°C° 0 mm 2 mps 670 mmHg 65%
    03:00 +19°C° 0 mm 2 mps 670 mmHg 66%
    04:00 +18°C° 0 mm 2 mps 670 mmHg 67%
    05:00 +19°C° 0 mm 2 mps 670 mmHg 64%
    06:00 +20°C° 0 mm 3 mps 671 mmHg 61%
    07:00 +20°C° 0 mm 3 mps 671 mmHg 58%
    08:00 +24°C° 0 mm 3 mps 672 mmHg 51%
    09:00 +27°C° 0 mm 3 mps 672 mmHg 45%
    10:00 +29°C° 0 mm 4 mps 673 mmHg 39%
    11:00 +30°C° 0 mm 3 mps 672 mmHg 35%
    12:00 +31°C° 0 mm 3 mps 672 mmHg 32%
    13:00 +32°C° 0 mm 2 mps 671 mmHg 28%
    14:00 +32°C° 0 mm 2 mps 671 mmHg 30%
    15:00 +31°C° 0 mm 2 mps 670 mmHg 31%
    16:00 +30°C° 0 mm 2 mps 670 mmHg 33%
    17:00 +28°C° 0 mm 2 mps 670 mmHg 37%
    18:00 +26°C° 0 mm 2 mps 670 mmHg 41%
    19:00 +25°C° 0 mm 2 mps 671 mmHg 46%
    20:00 +24°C° 0 mm 2 mps 671 mmHg 47%
    21:00 +23°C° 0 mm 2 mps 671 mmHg 48%
    22:00 +21°C° 0 mm 2 mps 671 mmHg 50%
    23:00 +21°C° 0 mm 2 mps 671 mmHg 51%
    Show more